This demonstration page uses our WeatherBlox Daily Observations layout. Learn more.

Left ArrowRight Arrow

38.20091, -84.87328

Hourly Observations for April 3, 2016

Temp ( °F °C ) Dew Point ( °F °C ) Humidity (%) Winds ( mph kmh ) Pressure ( in mb ) Visibility ( mi km ) Precip ( " mm )
12:53 am 00:53 Clear 39 3.9 15 -9.4 38 38 NW 9 15 30.05 1018 10 16 0.00 0.00
1:53 am 01:53 Clear 37 2.8 16 -8.9 42 42 WNW 5 7 30.07 1018 10 16 0.00 0.00
2:53 am 02:53 Clear 36 2.2 16 -8.9 44 44 NW 3 6 30.08 1019 10 16 0.00 0.00
3:53 am 03:53 Clear 32 0 19 -7.2 59 59 W 5 7 30.10 1019 10 16 0.00 0.00
4:53 am 04:53 Clear 32 0 18 -7.8 56 56 NW 3 6 30.11 1020 10 16 0.00 0.00
5:53 am 05:53 Clear 28 -2.2 20 -6.7 72 72 Calm 30.12 1020 10 16 0.00 0.00
6:53 am 06:53 Clear 28 -2.2 20 -6.7 72 72 Calm 30.15 1021 10 16 0.00 0.00
7:53 am 07:53 Sunny 29 -1.7 21 -6.1 72 72 Calm 30.16 1021 10 16 0.00 0.00
8:53 am 08:53 Sunny 36 2.2 21 -6.1 55 55 SW 6 9 30.17 1022 10 16 0.00 0.00
9:53 am 09:53 Sunny 40 4.4 15 -9.4 36 36 WSW 7 11 30.18 1022 10 16 0.00 0.00
10:53 am 10:53 Sunny 42 5.6 15 -9.4 33 33 SW 7 11 30.18 1022 10 16 0.00 0.00
11:53 am 11:53 Sunny 46 7.8 16 -8.9 30 30 SW 8 13 30.16 1021 10 16 0.00 0.00
12:53 pm 12:53 Sunny 50 10 18 -7.8 28 28 VRB 5 7 30.14 1021 10 16 0.00 0.00
1:53 pm 13:53 Sunny 53 11.7 23 -5 31 31 SSW 8 13 30.11 1020 10 16 0.00 0.00
2:53 pm 14:53 Sunny 56 13.3 26 -3.3 32 32 SW 12 19 30.08 1019 10 16 0.00 0.00
3:53 pm 15:53 Sunny 58 14.4 28 -2.2 32 32 SW 13 20 30.04 1017 10 16 0.00 0.00
4:53 pm 16:53 Sunny 60 15.6 29 -1.7 31 31 SW 14 22 30.02 1017 10 16 0.00 0.00
5:53 pm 17:53 Sunny 61 16.1 31 -0.6 32 32 SW 15 24 29.99 1016 10 16 0.00 0.00
6:53 pm 18:53 Sunny 60 15.6 31 -0.6 33 33 SW 15 24 29.97 1015 10 16 0.00 0.00
7:53 pm 19:53 Sunny 58 14.4 32 0 38 38 SSW 12 19 29.96 1015 10 16 0.00 0.00
8:53 pm 20:53 Clear 56 13.3 33 0.6 42 42 SSW 9 15 29.96 1014 10 16 0.00 0.00
9:53 pm 21:53 Clear 56 13.3 33 0.6 42 42 SSW 14 22 29.96 1015 10 16 0.00 0.00
10:53 pm 22:53 Clear 56 13.3 33 0.6 42 42 SSW 14 22 29.95 1014 10 16 0.00 0.00
11:53 pm 23:53 Clear 56 13.3 32 0 40 40 SSW 17 28 29.94 1014 10 16 0.00 0.00

Powered by AerisWeather